{"data":{"norad_id":59240,"epoch":"2026-05-25T04:44:46.348224Z","epoch_age_seconds":53962,"freshness":"FRESH","line1":"1 59240U 24049K   26145.19775866  .00001075  00000+0  48599-4 0  9997","line2":"2 59240  43.0035  71.7485 0001138 273.0396  87.0325 15.27579326124102","mean_motion":15.27579326,"eccentricity":0.0001138,"inclination_deg":43.0035,"raan_deg":71.7485,"arg_perigee_deg":273.0396,"mean_anomaly_deg":87.0325,"bstar":4.8599e-5,"rev_number":12410,"period_min":94.266790306116,"perigee_km":482.27031103146,"apogee_km":483.83191744627,"semimajor_km":6861.1881142389,"source":"CELESTRAK","updated_at":"2026-05-25T13:38:18.870875Z"}}